User: anonymous   Login
Location: Marne
(34.0056°N, 117.9064°W)
Time: 11:24:46
(UTC+00:00)
Language:

Cosmos 2237 Rocket - Orbit

View from above orbital plane
View from above orbital plane
View from above satellite
View from above satellite

Ground track
Ground track

The orbit data is extracted from the following two-line orbital elements,

1 22566U 93016B   20094.39119537 -.00000344  00000-0 -15330-3 0  9991
2 22566  71.0048  83.3146 0009716   6.2617 353.8625 14.14961500395722
Epoch (UTC): 03 April 2020 09:23:19
Eccentricity: 0.0009716
inclination: 71.0048°
perigee height: 835 km
apogee height: 849 km
right ascension of ascending node: 83.3146°
argument of perigee: 6.2617°
revolutions per day: 14.14961500
mean anomaly at epoch: 353.8625°
orbit number at epoch: 39572

The dashed part of the orbit path shows where the satellite is in the earth's shadow,  

DLR